Weather in San Benedetto del Tronto

Italy     42°56′55″N   13°52′40″E
temp.,
°C
wind,
m/s
gust,
m/s
humid.,
%
clouds,
%
prec.,
mm/h
press.,
hPa
HPBL,
m
29 june, wed
wed2923:00+25s458498 0.0 1012135
02:00+25wsw33713 0.0 101031
05:00+25nnw33670 0.0 101052
08:00+25nnw79780 0.0 1011395
11:00+24n77830 0.0 1012392
14:00+25nne56800 0.0 1011303
17:00+25nne44790 0.0 1011299
20:00+25ese117810 0.0 1011136
30 june, thu
thu3023:00+25ssw11800 0.0 101226
02:00+24sw34760 0.0 101193
05:00+24w22720 0.0 101148
08:00+25ese11680 0.0 101261
11:00+25ese33720 0.0 1012150
14:00+26ene56720 0.0 1012232
17:00+26ese34790 0.0 1011251
20:00+26sse34820 0.0 1011138
1 july, fri
fri123:00+25s34810 0.0 101269
02:00+25s45790 0.0 1012100
05:00+25sw11670 0.0 101222
08:00+25sse33700 0.0 101396
11:00+25se567898 0.0 1012206
14:00+26ese4677100 0.0 1011213
17:00+26ese348176 0.0 1011133
20:00+26ese22770 0.0 101128
2 july, sat
sat223:00+25ese11810 0.0 101311
02:00+25wnw34670 0.0 101448
05:00+24wnw68690 0.0 1015251
08:00+25nw810660 0.0 1016446
11:00+25n910750 0.0 1017423
14:00+24n1112720 0.0 1017313
17:00+25nnw911670 0.0 1017385
20:00+25nnw69690 0.0 1017230
3 july, sun
sun323:00+25nw45630 0.0 101788
02:00+25wnw55630 0.0 1017110
05:00+24wnw466211 0.0 1016164
08:00+25nw57615 0.0 1017257
11:00+26n67670 0.0 1017273
14:00+25n910750 0.0 1017302
17:00+25n67710 0.0 1016280
20:00+26nnw22660 0.0 101636